Zurück zum Katalog

COSMOS 970 DEB

AktivLEO
NORAD 65010·DEBRIS·🇷🇺 Russia

Gestartet Dec 21, 1977 von Baikonur Cosmodrome

Loading…

Nächste Überflüge (nächste 24 Stunden)

TLE

AlterndSource: Space-Track

Epoche: Sep 9, 2026, 01:45 UTC

1 65010U 77121DX  26252.07350874 -.00000021  00000-0  69041-4 0  9999
2 65010  65.8247 138.0416 0144706 236.7089 192.5355 13.62722991107196

Verfolge COSMOS 970 DEB in Echtzeit mit AllMySat

Download on the App Store